Weather History for KBFM - February, 2012

Change the Weather History Date:

Tuesday, February 21, 2012

  Actual Average Record
Temperature  
Mean Temperature 61 °F -  
Max Temperature 68 °F 62 °F 78 °F (2005)
Min Temperature 54 °F 44 °F 34 °F (2009)
Degree Days  
Heating Degree Days 4    
Growing Degree Days 11 (Base 50)    
Moisture  
Dew Point 55 °F    
Average Humidity 81    
Maximum Humidity 94    
Minimum Humidity 61    
Precipitation  
Precipitation 0.01 in - - ()
Sea Level Pressure  
Sea Level Pressure 30.17 in    
Wind  
Wind Speed 5 mph (SSE)    
Max Wind Speed 14 mph    
Max Gust Speed 17 mph    
Visibility 10 miles    
Events      
Averages and records for this station are not official NWS values.
T = Trace of Precipitation, MM = Missing Value Source: NWS Daily Summary

Daily Weather History Graph

Daily Weather History Graph

Search for Another Location

Airport or City:

Trip Planner

Search our weather history database for the weather conditions in past years. The results will help you decide how hot, cold, wet, or windy it might be!

Date:

Astronomy

Feb. 21, 2012 Rise Set
Actual Time 6:27 AM CST 5:44 PM CST
Civil Twilight 6:03 AM CST 6:09 PM CST
Nautical Twilight 5:35 AM CST 6:37 PM CST
Astronomical Twilight 5:07 AM CST 7:05 PM CST
Moon 5:58 AM CST (2/21) 5:46 PM CST (2/21)
Length of Visible Light 12h 05m
Length of Day
11h 17m
Waning Crescent, 0% of the Moon is Illuminated
Feb 21
Waning Crescent
Feb 21
New
Feb 29
First Quarter
Mar 8
Full
Mar 14
Last Quarter

Hourly Weather History & Observations

Time (CST) Temp. Dew Point Humidity Pressure Visibility Wind Dir Wind Speed Gust Speed Precip Events Conditions
12:53 AM 54.0 °F 50.0 °F 86% 30.21 in 10.0 mi Calm Calm - 0.00 in   Overcast
1:53 AM 54.0 °F 50.0 °F 86% 30.21 in 10.0 mi Calm Calm - 0.00 in   Overcast
2:53 AM 54.0 °F 50.0 °F 86% 30.19 in 10.0 mi NE 6.9 mph - 0.00 in   Overcast
3:24 AM 55.4 °F 50.0 °F 82% 30.19 in 10.0 mi ENE 3.5 mph - N/A   Overcast
3:53 AM 55.9 °F 52.0 °F 87% 30.18 in 10.0 mi East 3.5 mph - N/A   Overcast
4:53 AM 55.9 °F 53.1 °F 90% 30.19 in 10.0 mi ESE 4.6 mph - N/A   Overcast
5:53 AM 55.4 °F 51.8 °F 88% 30.20 in 10.0 mi SE 3.5 mph - N/A   Overcast
6:53 AM 55.9 °F 52.0 °F 87% 30.20 in 10.0 mi SE 6.9 mph - N/A   Mostly Cloudy
7:53 AM 57.0 °F 53.1 °F 87% 30.21 in 10.0 mi SSE 5.8 mph - N/A   Mostly Cloudy
8:53 AM 60.1 °F 53.1 °F 78% 30.23 in 10.0 mi SSE 4.6 mph - N/A   Scattered Clouds
9:53 AM 64.0 °F 53.1 °F 67% 30.23 in 10.0 mi SSE 6.9 mph - N/A   Mostly Cloudy
10:53 AM 66.9 °F 53.1 °F 61% 30.23 in 10.0 mi SSE 8.1 mph - 0.00 in   Mostly Cloudy
11:53 AM 68.0 °F 54.0 °F 61% 30.20 in 10.0 mi SSE 11.5 mph - N/A   Scattered Clouds
12:53 PM 68.0 °F 55.0 °F 63% 30.17 in 10.0 mi SSE 11.5 mph - N/A   Scattered Clouds
1:53 PM 66.9 °F 55.9 °F 68% 30.15 in 10.0 mi SSE 13.8 mph - N/A   Scattered Clouds
2:53 PM 68.0 °F 57.0 °F 68% 30.13 in 10.0 mi SSE 11.5 mph 17.3 mph N/A   Unknown
3:53 PM 66.2 °F 55.4 °F 68% 30.13 in 10.0 mi South 6.9 mph - N/A   Scattered Clouds
4:53 PM 64.9 °F 57.0 °F 75% 30.12 in 10.0 mi SSE 6.9 mph - N/A   Partly Cloudy
5:53 PM 62.1 °F 57.9 °F 86% 30.12 in 10.0 mi SSE 5.8 mph - N/A   Partly Cloudy
6:53 PM 60.8 °F 57.2 °F 88% 30.13 in 10.0 mi South 3.5 mph - N/A   Clear
7:53 PM 60.8 °F 57.2 °F 88% 30.12 in 10.0 mi SSE 6.9 mph - N/A   Clear
8:53 PM 60.1 °F 57.9 °F 93% 30.12 in 10.0 mi South 4.6 mph - N/A   Clear
9:53 PM 60.8 °F 59.0 °F 94% 30.11 in 10.0 mi South 4.6 mph - N/A   Clear
10:53 PM 61.0 °F 59.0 °F 93% 30.09 in 10.0 mi South 3.5 mph - N/A   Clear
11:53 PM 61.0 °F 59.0 °F 93% 30.08 in 10.0 mi South 3.5 mph - 0.01 in   Clear